Flag for Germany Weather past 2 weeks in Marl, North Rhine-Westphalia, Germany

Now
66 °F

Scattered clouds.


Feels Like: 66 °F
Forecast: 55 / 75 °F
Wind: 6 mph from Northwest

Location: Dortmund / Wickede

Current Time: Jul 30, 2014 at 11:29:31 AM

Latest Report: Jul 30, 2014 at 10:50 AM


Visibility: N/A

Pressure: 29.89 "Hg

Humidity: 78%

Dew point: 59 °F

Location of MarlLocation

Historic Weather in Marl — Graph

°F

Marl temperature yesterday

Maximum temperature yesterday: 79 °F (at 5:50 PM)
Minimum temperature yesterday: 61 °F (at 5:20 AM)
Average temperature yesterday: 70 °F

Past Weeks' High & Low Weather Summary

 TemperatureHumidityPressure
High90 °F (Jul 19, 1:20 PM)100% (Jul 21, 12:50 PM)30.18 "Hg (Jul 21, 12:50 PM)
Low55 °F (Jul 26, 5:20 AM)22% (Jul 19, 2:50 PM)29.77 "Hg (Jul 20, 5:20 AM)
Average72 °F65%29.98 "Hg
* Reported Jul 15 10:20 AM — Jul 30 10:20 AM, Marl, Weather by CustomWeather, © 2014

Note: Actual official high and low records may vary slightly from our data, if they occured in-between our weather recording intervals... More about our weather records

Advertising

Marl weather history for previous 24 hours

 ConditionsComfort  
Time TempWeatherWind HumidityBarometerVisibility
10:20 AM
Jul 30
64 °FPartly sunny.6 mph83%29.89 "HgN/A
9:50 AM64 °FPartly sunny.7 mph88%29.89 "HgN/A
9:20 AM63 °FPartly sunny.6 mph88%29.86 "HgN/A
8:50 AM63 °FPartly sunny.3 mph88%29.86 "HgN/A
8:20 AM63 °FPartly sunny.5 mph88%29.86 "HgN/A
7:50 AM63 °FPartly sunny.5 mph88%29.86 "Hg4 mi
7:20 AM63 °FPartly sunny.5 mph88%29.86 "Hg5 mi
6:50 AM63 °FPartly sunny.5 mph88%29.86 "Hg4 mi
6:20 AM63 °FPartly cloudy.5 mph88%29.83 "Hg4 mi
5:50 AM63 °FFog.5 mph94%29.83 "Hg2 mi
5:20 AM63 °FFog.5 mph94%29.83 "Hg3 mi
10:50 PM
Jul 29
64 °FLight rain. Passing clouds.2 mph88%29.83 "HgN/A
10:20 PM66 °FLight rain. Partly sunny.5 mph83%29.83 "HgN/A
9:50 PM66 °FSprinkles. More clouds than sun.6 mph83%29.83 "Hg5 mi
9:20 PM68 °FMore clouds than sun.7 mph83%29.83 "Hg4 mi
8:59 PM70 °FThunderstorms. Broken clouds.12 mph78%29.83 "Hg4 mi
8:50 PM70 °FScattered showers. Partly sunny.3 mph78%29.80 "Hg4 mi
8:20 PM73 °FPassing clouds.6 mph69%29.80 "HgN/A
7:50 PM75 °FSunny.6 mph65%29.77 "Hg10 mi
7:20 PM77 °FPassing clouds.6 mph61%29.77 "HgN/A
6:50 PM77 °FScattered clouds.7 mph61%29.80 "HgN/A
6:20 PM79 °FScattered clouds.8 mph58%29.80 "HgN/A
5:50 PM79 °FSunny.6 mph58%29.80 "Hg10 mi
5:20 PM77 °FSunny.3 mph61%29.80 "Hg10 mi
4:50 PM77 °FPassing clouds.5 mph57%29.80 "HgN/A
4:20 PM75 °FPassing clouds.5 mph61%29.80 "HgN/A
3:50 PM75 °FSunny.7 mph61%29.80 "Hg10 mi
3:20 PM75 °FSunny.7 mph65%29.83 "Hg10 mi
2:50 PM75 °FClear.12 mph61%29.83 "Hg5 mi
2:20 PM75 °FClear.8 mph69%29.83 "Hg3 mi
1:50 PM73 °FClear.8 mph69%29.86 "Hg3 mi
1:20 PM72 °FBroken clouds.6 mph78%29.86 "Hg4 mi
12:50 PM72 °FBroken clouds.5 mph83%29.86 "Hg3 mi
12:20 PM72 °FPartly sunny.3 mph78%29.86 "Hg4 mi
11:50 AM72 °FPartly sunny.3 mph78%29.86 "Hg4 mi
11:20 AM70 °FFog.3 mph78%29.86 "Hg2 mi
Weather by CustomWeather, © 2014

See weather overviewHow to use our weather pages